{"data":{"norad_id":67868,"epoch":"2026-05-24T21:29:34.799424Z","epoch_age_seconds":84311,"freshness":"FRESH","line1":"1 67868U 26034U   26144.89554166  .00014023  00000+0  48451-3 0  9995","line2":"2 67868  53.1580 210.2370 0001123  74.3866 285.7258 15.30212351 15708","mean_motion":15.30212351,"eccentricity":0.0001123,"inclination_deg":53.158,"raan_deg":210.237,"arg_perigee_deg":74.3866,"mean_anomaly_deg":285.7258,"bstar":0.00048451,"rev_number":1570,"period_min":94.104586141849,"perigee_km":474.40856451162,"apogee_km":475.9478191037,"semimajor_km":6853.3151918077,"source":"CELESTRAK","updated_at":"2026-05-25T13:38:21.728686Z"}}